CSN666 UHMD-UHMA

Flight info

Callsign CSN666
Flight time 1h 41m
Altitude 8000
Route AKETA1C AKETA G212 NALEK NALEK1N
Aircraft C208/L-SDFGR/C

Departure

Time 2026-05-05 23:51
Airport Provideniya Bay Airport (UHMD)

Arrival

Time 2026-05-06 01:33
Airport Ugolny Yuri Ryktheu Airport (UHMA)
Time Latitude Longitude Altitude Speed Heading
2026-05-05 23:42 64.38647 -173.23289 51 ft 0 kts 341°
2026-05-05 23:50 64.38688 -173.23472 54 ft 27 kts 241°
2026-05-05 23:50 64.38470 -173.23723 52 ft 52 kts 201°
2026-05-05 23:51 64.37980 -173.24183 71 ft 93 kts 201°
2026-05-05 23:51 64.37399 -173.24689 415 ft 86 kts 196°
2026-05-05 23:51 64.36832 -173.24966 738 ft 80 kts 184°
2026-05-05 23:51 64.36251 -173.24950 996 ft 90 kts 175°
2026-05-05 23:52 64.35598 -173.24718 1277 ft 102 kts 169°
2026-05-05 23:52 64.34875 -173.24295 1593 ft 113 kts 165°
2026-05-05 23:52 64.34079 -173.23784 1877 ft 124 kts 178°
2026-05-05 23:52 64.33338 -173.24557 2192 ft 118 kts 239°
2026-05-05 23:53 64.33308 -173.26282 2569 ft 108 kts 295°
2026-05-05 23:53 64.33652 -173.27761 2967 ft 102 kts 308°
2026-05-05 23:53 64.33996 -173.29108 3371 ft 96 kts 279°
2026-05-05 23:53 64.34111 -173.30597 3749 ft 92 kts 282°
2026-05-05 23:54 64.34228 -173.31991 4124 ft 87 kts 280°
2026-05-05 23:54 64.34325 -173.33304 4488 ft 78 kts 279°
2026-05-05 23:54 64.34406 -173.34451 4844 ft 66 kts 278°
2026-05-05 23:54 64.34482 -173.35543 5017 ft 76 kts 279°
2026-05-05 23:55 64.34579 -173.36843 5226 ft 86 kts 279°
2026-05-05 23:55 64.34679 -173.38255 5474 ft 93 kts 279°
2026-05-05 23:55 64.34785 -173.39780 5725 ft 100 kts 279°
2026-05-05 23:55 64.34896 -173.41424 5966 ft 107 kts 279°
2026-05-05 23:56 64.34974 -173.42571 6130 ft 112 kts 279°
2026-05-05 23:56 64.35098 -173.44393 6371 ft 118 kts 279°
2026-05-05 23:56 64.35268 -173.46910 6729 ft 119 kts 279°
2026-05-05 23:56 64.35392 -173.48785 7038 ft 117 kts 279°
2026-05-05 23:57 64.35473 -173.50015 7238 ft 116 kts 279°
2026-05-05 23:57 64.35594 -173.51844 7543 ft 114 kts 280°
2026-05-05 23:57 64.35712 -173.53645 7850 ft 112 kts 280°
2026-05-05 23:57 64.35828 -173.55440 8050 ft 119 kts 280°
2026-05-05 23:58 64.35966 -173.57465 8070 ft 135 kts 280°
2026-05-05 23:58 64.36117 -173.59715 8064 ft 148 kts 280°
2026-05-05 23:58 64.36278 -173.62142 8066 ft 156 kts 280°
2026-05-05 23:58 64.36444 -173.64670 8067 ft 161 kts 280°
2026-05-05 23:59 64.36612 -173.67228 8064 ft 164 kts 280°
2026-05-05 23:59 64.36780 -173.69833 8063 ft 164 kts 279°
2026-05-05 23:59 64.36947 -173.72447 8065 ft 164 kts 280°
2026-05-05 23:59 64.37115 -173.75046 8066 ft 163 kts 280°
2026-05-06 00:00 64.37284 -173.77657 8062 ft 164 kts 280°
2026-05-06 00:00 64.37450 -173.80253 8069 ft 164 kts 280°
2026-05-06 00:00 64.37617 -173.82859 8068 ft 166 kts 280°
2026-05-06 00:00 64.37746 -173.85503 8069 ft 166 kts 272°
2026-05-06 00:01 64.37733 -173.88172 8071 ft 166 kts 271°
2026-05-06 00:01 64.37729 -173.90838 8074 ft 166 kts 272°
2026-05-06 00:01 64.37729 -173.93495 8073 ft 165 kts 272°
2026-05-06 00:01 64.37728 -173.96155 8076 ft 165 kts 272°
2026-05-06 00:02 64.37727 -173.98814 8075 ft 165 kts 272°
2026-05-06 00:02 64.37724 -174.01474 8076 ft 165 kts 272°
2026-05-06 00:02 64.37721 -174.04102 8078 ft 165 kts 272°
2026-05-06 00:02 64.37718 -174.06762 8076 ft 165 kts 272°
2026-05-06 00:03 64.37714 -174.09423 8075 ft 165 kts 272°
2026-05-06 00:03 64.37710 -174.12078 8073 ft 166 kts 272°
2026-05-06 00:03 64.37705 -174.14739 8072 ft 166 kts 272°
2026-05-06 00:03 64.37699 -174.17404 8073 ft 166 kts 272°
2026-05-06 00:04 64.37694 -174.20066 8076 ft 165 kts 272°
2026-05-06 00:04 64.37687 -174.22737 8072 ft 165 kts 272°
2026-05-06 00:04 64.37680 -174.25367 8071 ft 165 kts 271°
2026-05-06 00:04 64.37673 -174.28026 8073 ft 165 kts 271°
2026-05-06 00:05 64.37657 -174.33333 8071 ft 165 kts 272°
2026-05-06 00:05 64.37648 -174.35991 8073 ft 165 kts 271°
2026-05-06 00:05 64.37639 -174.38649 8081 ft 165 kts 271°
2026-05-06 00:06 64.37630 -174.41277 8078 ft 165 kts 271°
2026-05-06 00:06 64.37635 -174.43936 8075 ft 165 kts 277°
2026-05-06 00:06 64.37824 -174.46539 8072 ft 164 kts 282°
2026-05-06 00:06 64.38025 -174.49148 8075 ft 164 kts 281°
2026-05-06 00:07 64.38216 -174.51745 8074 ft 164 kts 281°
2026-05-06 00:07 64.38406 -174.54352 8072 ft 164 kts 281°
2026-05-06 00:07 64.38593 -174.56924 8071 ft 164 kts 281°
2026-05-06 00:07 64.38783 -174.59533 8074 ft 164 kts 281°
2026-05-06 00:08 64.38973 -174.62151 8072 ft 164 kts 281°
2026-05-06 00:08 64.39162 -174.64758 8072 ft 164 kts 281°
2026-05-06 00:08 64.39351 -174.67368 8072 ft 164 kts 281°
2026-05-06 00:08 64.39538 -174.69975 8077 ft 164 kts 281°
2026-05-06 00:09 64.39725 -174.72579 8077 ft 164 kts 281°
2026-05-06 00:09 64.39910 -174.75153 8074 ft 164 kts 281°
2026-05-06 00:09 64.40097 -174.77765 8075 ft 164 kts 281°
2026-05-06 00:09 64.40283 -174.80377 8073 ft 164 kts 281°
2026-05-06 00:10 64.40469 -174.82985 8069 ft 164 kts 280°
2026-05-06 00:10 64.40654 -174.85605 8070 ft 165 kts 280°
2026-05-06 00:10 64.40837 -174.88193 8073 ft 165 kts 280°
2026-05-06 00:10 64.41022 -174.90803 8073 ft 165 kts 280°
2026-05-06 00:11 64.41206 -174.93428 8067 ft 165 kts 280°
2026-05-06 00:11 64.41390 -174.96043 8070 ft 165 kts 280°
2026-05-06 00:11 64.41573 -174.98662 8068 ft 165 kts 280°
2026-05-06 00:11 64.41755 -175.01275 8068 ft 164 kts 280°
2026-05-06 00:12 64.41938 -175.03900 8069 ft 164 kts 280°
2026-05-06 00:12 64.42120 -175.06520 8070 ft 164 kts 280°
2026-05-06 00:12 64.42299 -175.09102 8069 ft 164 kts 280°
2026-05-06 00:12 64.42479 -175.11716 8069 ft 164 kts 280°
2026-05-06 00:13 64.42659 -175.14330 8070 ft 164 kts 280°
2026-05-06 00:13 64.42839 -175.16942 8070 ft 164 kts 280°
2026-05-06 00:13 64.43018 -175.19556 8069 ft 164 kts 280°
2026-05-06 00:13 64.43197 -175.22171 8070 ft 164 kts 280°
2026-05-06 00:14 64.43374 -175.24786 8072 ft 164 kts 280°
2026-05-06 00:14 64.43552 -175.27400 8069 ft 164 kts 280°
2026-05-06 00:14 64.43727 -175.29987 8072 ft 164 kts 280°
2026-05-06 00:14 64.43904 -175.32603 8067 ft 164 kts 280°
2026-05-06 00:15 64.44080 -175.35222 8070 ft 164 kts 280°
2026-05-06 00:15 64.44256 -175.37838 8068 ft 164 kts 280°
2026-05-06 00:15 64.44432 -175.40460 8069 ft 164 kts 280°
2026-05-06 00:15 64.44607 -175.43073 8069 ft 164 kts 280°
2026-05-06 00:16 64.44781 -175.45688 8071 ft 164 kts 280°
2026-05-06 00:16 64.44952 -175.48269 8068 ft 164 kts 280°
2026-05-06 00:16 64.45126 -175.50883 8070 ft 164 kts 279°
2026-05-06 00:16 64.45298 -175.53499 8067 ft 164 kts 279°
2026-05-06 00:17 64.45471 -175.56112 8065 ft 164 kts 279°
2026-05-06 00:17 64.45642 -175.58726 8066 ft 164 kts 279°
2026-05-06 00:17 64.45814 -175.61342 8065 ft 164 kts 279°
2026-05-06 00:17 64.45985 -175.63956 8068 ft 164 kts 279°
2026-05-06 00:18 64.46155 -175.66573 8068 ft 164 kts 279°
2026-05-06 00:18 64.46326 -175.69195 8069 ft 164 kts 279°
2026-05-06 00:18 64.46492 -175.71773 8067 ft 164 kts 279°
2026-05-06 00:18 64.46662 -175.74391 8066 ft 164 kts 279°
2026-05-06 00:19 64.46830 -175.77003 8064 ft 164 kts 279°
2026-05-06 00:19 64.46998 -175.79624 8067 ft 164 kts 279°
2026-05-06 00:19 64.47166 -175.82244 8066 ft 164 kts 279°
2026-05-06 00:19 64.47333 -175.84856 8068 ft 164 kts 279°
2026-05-06 00:20 64.47499 -175.87471 8066 ft 164 kts 279°
2026-05-06 00:20 64.47666 -175.90097 8066 ft 164 kts 279°
2026-05-06 00:20 64.47829 -175.92681 8068 ft 164 kts 279°
2026-05-06 00:20 64.47997 -175.95331 8067 ft 164 kts 279°
2026-05-06 00:21 64.48161 -175.97952 8067 ft 164 kts 279°
2026-05-06 00:21 64.48326 -176.00571 8066 ft 164 kts 279°
2026-05-06 00:21 64.48490 -176.03189 8066 ft 164 kts 279°
2026-05-06 00:21 64.48651 -176.05775 8065 ft 164 kts 279°
2026-05-06 00:22 64.48814 -176.08396 8068 ft 164 kts 279°
2026-05-06 00:22 64.48976 -176.11014 8066 ft 164 kts 279°
2026-05-06 00:22 64.49138 -176.13627 8069 ft 164 kts 279°
2026-05-06 00:22 64.49300 -176.16251 8064 ft 164 kts 279°
2026-05-06 00:23 64.49461 -176.18875 8062 ft 164 kts 279°
2026-05-06 00:23 64.49619 -176.21457 8064 ft 164 kts 279°
2026-05-06 00:23 64.49779 -176.24074 8063 ft 164 kts 279°
2026-05-06 00:23 64.49938 -176.26694 8065 ft 164 kts 279°
2026-05-06 00:24 64.50097 -176.29312 8064 ft 164 kts 279°
2026-05-06 00:24 64.50256 -176.31930 8063 ft 164 kts 279°
2026-05-06 00:24 64.50413 -176.34545 8068 ft 163 kts 279°
2026-05-06 00:24 64.50569 -176.37132 8064 ft 164 kts 279°
2026-05-06 00:25 64.50726 -176.39754 8063 ft 164 kts 279°
2026-05-06 00:25 64.50883 -176.42370 8064 ft 163 kts 279°
2026-05-06 00:25 64.51039 -176.44989 8065 ft 163 kts 279°
2026-05-06 00:25 64.51194 -176.47604 8064 ft 163 kts 279°
2026-05-06 00:26 64.51350 -176.50226 8067 ft 163 kts 279°
2026-05-06 00:26 64.51504 -176.52842 8067 ft 164 kts 278°
2026-05-06 00:26 64.51658 -176.55459 8061 ft 164 kts 278°
2026-05-06 00:26 64.51812 -176.58078 8061 ft 163 kts 278°
2026-05-06 00:27 64.51964 -176.60674 8061 ft 163 kts 278°
2026-05-06 00:27 64.52116 -176.63291 8061 ft 163 kts 278°
2026-05-06 00:27 64.52269 -176.65914 8062 ft 163 kts 278°
2026-05-06 00:27 64.52420 -176.68531 8061 ft 164 kts 278°
2026-05-06 00:28 64.52572 -176.71157 8064 ft 163 kts 278°
2026-05-06 00:28 64.52721 -176.73744 8064 ft 164 kts 278°
2026-05-06 00:28 64.52872 -176.76370 8063 ft 164 kts 278°
2026-05-06 00:28 64.53022 -176.78992 8062 ft 164 kts 278°
2026-05-06 00:29 64.53172 -176.81617 8060 ft 163 kts 278°
2026-05-06 00:29 64.53320 -176.84238 8066 ft 163 kts 278°
2026-05-06 00:29 64.53469 -176.86860 8059 ft 163 kts 278°
2026-05-06 00:29 64.53617 -176.89478 8058 ft 163 kts 278°
2026-05-06 00:30 64.53764 -176.92094 8062 ft 163 kts 278°
2026-05-06 00:30 64.53910 -176.94684 8065 ft 163 kts 278°
2026-05-06 00:30 64.54056 -176.97305 8064 ft 163 kts 278°
2026-05-06 00:30 64.54203 -176.99930 8060 ft 164 kts 278°
2026-05-06 00:31 64.54349 -177.02561 8062 ft 164 kts 278°
2026-05-06 00:31 64.54494 -177.05189 8060 ft 164 kts 278°
2026-05-06 00:31 64.54640 -177.07819 8061 ft 164 kts 278°
2026-05-06 00:31 64.54784 -177.10442 8058 ft 164 kts 278°
2026-05-06 00:32 64.54926 -177.13032 8058 ft 164 kts 278°
2026-05-06 00:32 64.55070 -177.15666 8058 ft 164 kts 278°
2026-05-06 00:32 64.55213 -177.18292 8056 ft 164 kts 278°
2026-05-06 00:32 64.55355 -177.20914 8058 ft 163 kts 278°
2026-05-06 00:33 64.55497 -177.23539 8056 ft 163 kts 278°
2026-05-06 00:33 64.55639 -177.26169 8059 ft 163 kts 278°
2026-05-06 00:33 64.55780 -177.28793 8060 ft 163 kts 278°
2026-05-06 00:33 64.55920 -177.31413 8055 ft 163 kts 278°
2026-05-06 00:34 64.56060 -177.34034 8059 ft 163 kts 278°
2026-05-06 00:34 64.56199 -177.36651 8057 ft 163 kts 278°
2026-05-06 00:34 64.56338 -177.39275 8058 ft 163 kts 277°
2026-05-06 00:34 64.56477 -177.41898 8057 ft 163 kts 277°
2026-05-06 00:35 64.56613 -177.44493 8055 ft 163 kts 277°
2026-05-06 00:35 64.56750 -177.47114 8058 ft 163 kts 278°
2026-05-06 00:35 64.56888 -177.49741 8060 ft 163 kts 277°
2026-05-06 00:35 64.57025 -177.52364 8056 ft 163 kts 277°
2026-05-06 00:36 64.57161 -177.54992 8055 ft 163 kts 277°
2026-05-06 00:36 64.57297 -177.57617 8055 ft 163 kts 277°
2026-05-06 00:36 64.57432 -177.60245 8057 ft 163 kts 277°
2026-05-06 00:36 64.57568 -177.62880 8056 ft 163 kts 277°
2026-05-06 00:37 64.57702 -177.65513 8054 ft 163 kts 277°
2026-05-06 00:37 64.57836 -177.68139 8055 ft 163 kts 277°
2026-05-06 00:37 64.57968 -177.70736 8057 ft 163 kts 277°
2026-05-06 00:37 64.58101 -177.73366 8055 ft 163 kts 277°
2026-05-06 00:38 64.58234 -177.76002 8055 ft 163 kts 277°
2026-05-06 00:38 64.58366 -177.78630 8054 ft 164 kts 277°
2026-05-06 00:38 64.58498 -177.81261 8056 ft 164 kts 277°
2026-05-06 00:38 64.58630 -177.83896 8054 ft 164 kts 277°
2026-05-06 00:39 64.58761 -177.86533 8053 ft 164 kts 277°
2026-05-06 00:39 64.58847 -177.88276 8053 ft 163 kts 277°
2026-05-06 00:39 64.58977 -177.90911 8052 ft 164 kts 277°
2026-05-06 00:39 64.59149 -177.94404 8055 ft 163 kts 277°
2026-05-06 00:40 64.59236 -177.96186 8052 ft 163 kts 277°
2026-05-06 00:40 64.59365 -177.98816 8053 ft 164 kts 277°
2026-05-06 00:40 64.59534 -178.02304 8055 ft 163 kts 277°
2026-05-06 00:40 64.59619 -178.04047 8053 ft 163 kts 277°
2026-05-06 00:41 64.59746 -178.06681 8052 ft 163 kts 277°
2026-05-06 00:41 64.59873 -178.09311 8051 ft 163 kts 277°
2026-05-06 00:41 64.60000 -178.11959 8048 ft 163 kts 277°
2026-05-06 00:41 64.60125 -178.14590 8056 ft 163 kts 277°
2026-05-06 00:42 64.60251 -178.17221 8052 ft 163 kts 277°
2026-05-06 00:42 64.60374 -178.19822 8053 ft 163 kts 277°
2026-05-06 00:42 64.60498 -178.22451 8059 ft 163 kts 277°
2026-05-06 00:42 64.60621 -178.25078 8057 ft 163 kts 277°
2026-05-06 00:43 64.60745 -178.27714 8054 ft 163 kts 277°
2026-05-06 00:43 64.60868 -178.30347 8054 ft 163 kts 277°
2026-05-06 00:43 64.60991 -178.32988 8051 ft 163 kts 277°
2026-05-06 00:43 64.61111 -178.35590 8049 ft 163 kts 277°
2026-05-06 00:44 64.61234 -178.38258 8048 ft 164 kts 277°
2026-05-06 00:44 64.61355 -178.40892 8050 ft 164 kts 276°
2026-05-06 00:44 64.61475 -178.43500 8051 ft 164 kts 276°
2026-05-06 00:44 64.61596 -178.46149 8051 ft 164 kts 276°
2026-05-06 00:45 64.61715 -178.48785 8051 ft 164 kts 276°
2026-05-06 00:45 64.61834 -178.51424 8048 ft 164 kts 276°
2026-05-06 00:45 64.61953 -178.54068 8050 ft 164 kts 276°
2026-05-06 00:45 64.62072 -178.56711 8051 ft 163 kts 276°
2026-05-06 00:46 64.62190 -178.59351 8054 ft 164 kts 276°
2026-05-06 00:46 64.62306 -178.61960 8051 ft 164 kts 276°
2026-05-06 00:46 64.62423 -178.64608 8049 ft 164 kts 276°
2026-05-06 00:46 64.62540 -178.67248 8048 ft 164 kts 276°
2026-05-06 00:47 64.62656 -178.69891 8048 ft 164 kts 276°
2026-05-06 00:47 64.62771 -178.72529 8047 ft 164 kts 276°
2026-05-06 00:47 64.62886 -178.75173 8045 ft 164 kts 276°
2026-05-06 00:47 64.63001 -178.77822 8047 ft 164 kts 276°
2026-05-06 00:48 64.63084 -178.79717 8045 ft 163 kts 276°
2026-05-06 00:48 64.63102 -178.80140 8049 ft 163 kts 276°
2026-05-06 00:48 64.63186 -178.82102 8720 ft 123 kts 275°
2026-05-06 00:48 64.63253 -178.83991 9019 ft 125 kts 276°
2026-05-06 00:49 64.63353 -178.86185 8931 ft 145 kts 277°
2026-05-06 00:49 64.63464 -178.88640 8833 ft 158 kts 276°
2026-05-06 00:49 64.63578 -178.91244 8725 ft 165 kts 276°
2026-05-06 00:49 64.63693 -178.93947 8608 ft 169 kts 276°
2026-05-06 00:50 64.63809 -178.96709 8487 ft 171 kts 276°
2026-05-06 00:50 64.63925 -178.99481 8361 ft 173 kts 276°
2026-05-06 00:50 64.64040 -179.02258 8234 ft 174 kts 276°
2026-05-06 00:50 64.64157 -179.05075 8102 ft 175 kts 276°
2026-05-06 00:51 64.64274 -179.07883 8060 ft 171 kts 276°
2026-05-06 00:51 64.64385 -179.10620 8054 ft 168 kts 276°
2026-05-06 00:51 64.64496 -179.13320 8053 ft 166 kts 276°
2026-05-06 00:51 64.64605 -179.16005 8051 ft 166 kts 276°
2026-05-06 00:52 64.64712 -179.18677 8046 ft 165 kts 276°
2026-05-06 00:52 64.64819 -179.21307 8047 ft 165 kts 276°
2026-05-06 00:52 64.64927 -179.23962 8048 ft 164 kts 276°
2026-05-06 00:52 64.65034 -179.26627 8048 ft 164 kts 276°
2026-05-06 00:53 64.65139 -179.29282 8046 ft 164 kts 276°
2026-05-06 00:53 64.65244 -179.31943 8048 ft 164 kts 276°
2026-05-06 00:53 64.65349 -179.34600 8049 ft 164 kts 275°
2026-05-06 00:53 64.65454 -179.37259 8046 ft 164 kts 275°
2026-05-06 00:54 64.65557 -179.39889 8045 ft 164 kts 275°
2026-05-06 00:54 64.65660 -179.42549 8046 ft 164 kts 275°
2026-05-06 00:54 64.65763 -179.45208 8045 ft 164 kts 275°
2026-05-06 00:54 64.65865 -179.47864 8046 ft 164 kts 275°
2026-05-06 00:55 64.65968 -179.50533 8046 ft 165 kts 275°
2026-05-06 00:55 64.66070 -179.53193 8046 ft 165 kts 275°
2026-05-06 00:55 64.66171 -179.55859 8043 ft 165 kts 275°
2026-05-06 00:55 64.66270 -179.58489 8042 ft 165 kts 275°
2026-05-06 00:56 64.66371 -179.61151 8043 ft 165 kts 275°
2026-05-06 00:56 64.66471 -179.63809 8047 ft 165 kts 275°
2026-05-06 00:56 64.66570 -179.66481 8042 ft 165 kts 275°
2026-05-06 00:56 64.66669 -179.69149 8040 ft 165 kts 275°
2026-05-06 00:57 64.66767 -179.71813 8041 ft 165 kts 275°
2026-05-06 00:57 64.66866 -179.74488 8043 ft 165 kts 275°
2026-05-06 00:57 64.66963 -179.77156 8038 ft 165 kts 275°
2026-05-06 00:57 64.67060 -179.79819 8041 ft 165 kts 275°
2026-05-06 00:58 64.67156 -179.82456 8041 ft 165 kts 275°
2026-05-06 00:58 64.67252 -179.85126 8041 ft 165 kts 275°
2026-05-06 00:58 64.67347 -179.87792 8041 ft 165 kts 275°
2026-05-06 00:58 64.67443 -179.90459 8042 ft 165 kts 275°
2026-05-06 00:59 64.67537 -179.93128 8041 ft 165 kts 275°
2026-05-06 00:59 64.67631 -179.95802 8042 ft 165 kts 275°
2026-05-06 00:59 64.67725 -179.98470 8039 ft 165 kts 275°
2026-05-06 00:59 64.67818 179.98861 8046 ft 165 kts 275°
2026-05-06 01:00 64.67911 179.96194 8045 ft 165 kts 275°
2026-05-06 01:00 64.68003 179.93528 8040 ft 165 kts 275°
2026-05-06 01:00 64.68094 179.90890 8039 ft 165 kts 275°
2026-05-06 01:00 64.68184 179.88246 8040 ft 165 kts 275°
2026-05-06 01:01 64.68268 179.85534 8038 ft 165 kts 274°
2026-05-06 01:01 64.68350 179.82859 8035 ft 165 kts 274°
2026-05-06 01:01 64.68432 179.80185 8037 ft 165 kts 274°
2026-05-06 01:01 64.68514 179.77505 8037 ft 165 kts 274°
2026-05-06 01:02 64.68595 179.74838 8037 ft 165 kts 274°
2026-05-06 01:02 64.68665 179.72193 8036 ft 165 kts 274°
2026-05-06 01:02 64.68742 179.69516 8038 ft 165 kts 274°
2026-05-06 01:02 64.68823 179.66842 8040 ft 165 kts 274°
2026-05-06 01:03 64.68903 179.64169 8039 ft 165 kts 274°
2026-05-06 01:03 64.68985 179.61491 8036 ft 165 kts 274°
2026-05-06 01:03 64.69065 179.58814 8037 ft 165 kts 274°
2026-05-06 01:03 64.69145 179.56137 8038 ft 165 kts 274°
2026-05-06 01:04 64.69223 179.53497 8036 ft 165 kts 274°
2026-05-06 01:04 64.69301 179.50820 8037 ft 165 kts 274°
2026-05-06 01:04 64.69379 179.48148 8038 ft 165 kts 274°
2026-05-06 01:04 64.69457 179.45478 8038 ft 164 kts 274°
2026-05-06 01:05 64.69533 179.42813 8037 ft 164 kts 274°
2026-05-06 01:05 64.69610 179.40143 8036 ft 164 kts 274°
2026-05-06 01:05 64.69687 179.37476 8036 ft 164 kts 274°
2026-05-06 01:05 64.69762 179.34801 8041 ft 165 kts 274°
2026-05-06 01:06 64.69848 179.32126 8037 ft 165 kts 278°
2026-05-06 01:06 64.70306 179.29724 8033 ft 166 kts 299°
2026-05-06 01:06 64.70910 179.27419 8035 ft 165 kts 298°
2026-05-06 01:06 64.71467 179.25054 8037 ft 165 kts 296°
2026-05-06 01:07 64.72001 179.22667 8035 ft 165 kts 295°
2026-05-06 01:07 64.72532 179.20275 8038 ft 165 kts 295°
2026-05-06 01:07 64.73056 179.17914 8037 ft 165 kts 295°
2026-05-06 01:07 64.73588 179.15520 8040 ft 166 kts 295°
2026-05-06 01:08 64.74118 179.13129 8031 ft 166 kts 295°
2026-05-06 01:08 64.74649 179.10731 8033 ft 165 kts 295°
2026-05-06 01:08 64.75181 179.08325 8041 ft 168 kts 295°
2026-05-06 01:08 64.75719 179.05888 8036 ft 168 kts 295°
2026-05-06 01:09 64.76255 179.03469 8034 ft 167 kts 295°
2026-05-06 01:09 64.76787 179.01049 8032 ft 167 kts 295°
2026-05-06 01:09 64.77315 178.98637 8031 ft 166 kts 295°
2026-05-06 01:09 64.77839 178.96267 8028 ft 166 kts 295°
2026-05-06 01:10 64.78369 178.93862 8034 ft 166 kts 295°
2026-05-06 01:10 64.78899 178.91435 8030 ft 167 kts 295°
2026-05-06 01:10 64.79431 178.89014 8032 ft 166 kts 295°
2026-05-06 01:10 64.79959 178.86597 8031 ft 167 kts 295°
2026-05-06 01:11 64.80489 178.84174 8029 ft 166 kts 295°
2026-05-06 01:11 64.81022 178.81755 8030 ft 167 kts 295°
2026-05-06 01:11 64.81552 178.79321 8032 ft 167 kts 295°
2026-05-06 01:11 64.82082 178.76890 8034 ft 166 kts 294°
2026-05-06 01:12 64.82554 178.74487 7875 ft 164 kts 293°
2026-05-06 01:12 64.83055 178.72100 7563 ft 158 kts 294°
2026-05-06 01:12 64.83524 178.69866 7278 ft 147 kts 293°
2026-05-06 01:12 64.83947 178.67798 7145 ft 135 kts 292°
2026-05-06 01:13 64.84345 178.65858 7075 ft 130 kts 292°
2026-05-06 01:13 64.84736 178.63921 7022 ft 132 kts 292°
2026-05-06 01:13 64.85139 178.61971 6965 ft 132 kts 292°
2026-05-06 01:13 64.85537 178.60011 6909 ft 133 kts 292°
2026-05-06 01:14 64.86341 178.56045 6819 ft 135 kts 293°
2026-05-06 01:14 64.86738 178.54055 6768 ft 137 kts 291°
2026-05-06 01:14 64.87138 178.52032 6721 ft 137 kts 293°
2026-05-06 01:15 64.87550 178.49991 6669 ft 138 kts 292°
2026-05-06 01:15 64.87960 178.47966 6590 ft 136 kts 293°
2026-05-06 01:15 64.88385 178.45950 6530 ft 140 kts 293°
2026-05-06 01:15 64.88794 178.43864 6441 ft 139 kts 292°
2026-05-06 01:16 64.89213 178.41780 6378 ft 143 kts 292°
2026-05-06 01:16 64.89643 178.39673 6284 ft 141 kts 292°
2026-05-06 01:16 64.90058 178.37652 6202 ft 137 kts 293°
2026-05-06 01:16 64.90461 178.35652 6137 ft 136 kts 291°
2026-05-06 01:17 64.90860 178.33650 6026 ft 133 kts 293°
2026-05-06 01:17 64.91265 178.31715 5956 ft 132 kts 293°
2026-05-06 01:17 64.91658 178.29732 5859 ft 133 kts 292°
2026-05-06 01:17 64.92059 178.27776 5786 ft 134 kts 291°
2026-05-06 01:18 64.92455 178.25770 5697 ft 133 kts 292°
2026-05-06 01:18 64.92846 178.23794 5617 ft 132 kts 293°
2026-05-06 01:18 64.93244 178.21866 5537 ft 132 kts 293°
2026-05-06 01:18 64.93639 178.19911 5460 ft 134 kts 291°
2026-05-06 01:19 64.94028 178.17932 5373 ft 132 kts 292°
2026-05-06 01:19 64.94428 178.15954 5300 ft 132 kts 292°
2026-05-06 01:19 64.94817 178.14020 5220 ft 134 kts 293°
2026-05-06 01:19 64.95213 178.12004 5146 ft 133 kts 287°
2026-05-06 01:20 64.95447 178.09911 5071 ft 131 kts 282°
2026-05-06 01:20 64.95689 178.07850 4980 ft 130 kts 283°
2026-05-06 01:20 64.95914 178.05830 4901 ft 126 kts 283°
2026-05-06 01:20 64.96140 178.03807 4831 ft 130 kts 281°
2026-05-06 01:21 64.96372 178.01753 4732 ft 127 kts 283°
2026-05-06 01:21 64.96608 177.99741 4669 ft 128 kts 283°
2026-05-06 01:21 64.96835 177.97689 4585 ft 130 kts 283°
2026-05-06 01:21 64.97070 177.95621 4504 ft 131 kts 282°
2026-05-06 01:22 64.97298 177.93539 4411 ft 129 kts 283°
2026-05-06 01:22 64.97462 177.91486 4328 ft 126 kts 265°
2026-05-06 01:22 64.97140 177.89583 4263 ft 128 kts 232°
2026-05-06 01:22 64.96354 177.88570 4189 ft 133 kts 197°
2026-05-06 01:23 64.95479 177.87937 4115 ft 131 kts 198°
2026-05-06 01:23 64.94600 177.87346 4036 ft 131 kts 196°
2026-05-06 01:23 64.93729 177.86793 3974 ft 133 kts 196°
2026-05-06 01:23 64.92814 177.86215 3883 ft 138 kts 196°
2026-05-06 01:24 64.91971 177.85686 3825 ft 108 kts 196°
2026-05-06 01:24 64.91304 177.85273 3693 ft 93 kts 197°
2026-05-06 01:24 64.90909 177.85024 3614 ft 83 kts 196°
2026-05-06 01:24 64.90201 177.84586 3470 ft 78 kts 195°
2026-05-06 01:25 64.89851 177.84367 3382 ft 76 kts 196°
2026-05-06 01:25 64.89353 177.84057 3294 ft 74 kts 196°
2026-05-06 01:25 64.88852 177.83748 3218 ft 75 kts 195°
2026-05-06 01:25 64.88332 177.83426 3082 ft 79 kts 196°
2026-05-06 01:26 64.87804 177.83087 2964 ft 78 kts 196°
2026-05-06 01:26 64.87291 177.82767 2856 ft 77 kts 196°
2026-05-06 01:26 64.86770 177.82441 2743 ft 81 kts 195°
2026-05-06 01:26 64.86240 177.82113 2634 ft 77 kts 194°
2026-05-06 01:27 64.85723 177.81792 2528 ft 76 kts 194°
2026-05-06 01:27 64.85207 177.81472 2417 ft 76 kts 194°
2026-05-06 01:27 64.84701 177.81160 2306 ft 75 kts 194°
2026-05-06 01:27 64.84194 177.80843 2202 ft 75 kts 194°
2026-05-06 01:28 64.83683 177.80526 2094 ft 76 kts 194°
2026-05-06 01:28 64.83167 177.80203 1984 ft 76 kts 194°
2026-05-06 01:28 64.82660 177.79892 1884 ft 75 kts 193°
2026-05-06 01:28 64.82164 177.79585 1784 ft 74 kts 193°
2026-05-06 01:29 64.81665 177.79277 1668 ft 74 kts 193°
2026-05-06 01:29 64.81166 177.78967 1568 ft 75 kts 193°
2026-05-06 01:29 64.80660 177.78652 1457 ft 75 kts 193°
2026-05-06 01:29 64.80163 177.78346 1350 ft 73 kts 193°
2026-05-06 01:30 64.79672 177.78042 1242 ft 72 kts 193°
2026-05-06 01:30 64.79189 177.77743 1137 ft 73 kts 192°
2026-05-06 01:30 64.78687 177.77434 1018 ft 74 kts 192°
2026-05-06 01:30 64.78193 177.77125 909 ft 73 kts 191°
2026-05-06 01:31 64.77688 177.76798 791 ft 76 kts 193°
2026-05-06 01:31 64.77173 177.76453 676 ft 77 kts 194°
2026-05-06 01:31 64.76687 177.76165 621 ft 74 kts 195°
2026-05-06 01:31 64.76179 177.75854 464 ft 77 kts 192°
2026-05-06 01:32 64.75666 177.75525 346 ft 75 kts 194°
2026-05-06 01:32 64.75179 177.75210 275 ft 71 kts 193°
2026-05-06 01:32 64.74708 177.74918 218 ft 68 kts 193°
2026-05-06 01:32 64.74260 177.74640 199 ft 65 kts 193°
2026-05-06 01:33 64.73851 177.74379 186 ft 55 kts 196°
2026-05-06 01:33 64.73517 177.74166 176 ft 46 kts 192°
2026-05-06 01:33 64.73232 177.73992 175 ft 40 kts 196°
2026-05-06 01:33 64.72997 177.73842 170 ft 34 kts 195°
2026-05-06 01:34 64.72766 177.73713 166 ft 34 kts 194°
2026-05-06 01:34 64.72537 177.73567 162 ft 34 kts 194°
2026-05-06 01:34 64.72325 177.73436 156 ft 28 kts 194°
2026-05-06 01:34 64.72130 177.73317 155 ft 30 kts 195°
2026-05-06 01:35 64.71955 177.73323 154 ft 25 kts 180°
2026-05-06 01:35 64.71797 177.73466 152 ft 27 kts 155°
2026-05-06 01:35 64.71652 177.73704 152 ft 24 kts 138°
2026-05-06 01:35 64.71551 177.73755 152 ft 8 kts 250°
2026-05-06 01:36 64.71552 177.73689 152 ft 1 kts 268°
2026-05-06 01:36 64.71550 177.73674 152 ft 3 kts 235°
2026-05-06 01:36 64.71548 177.73595 152 ft 4 kts
2026-05-06 01:36 64.71551 177.73617 152 ft 2 kts 94°
2026-05-06 01:37 64.71552 177.73639 152 ft 0 kts 89°
2026-05-06 01:37 64.71552 177.73641 152 ft 0 kts 91°